Ypsilanti, MI

4:50 PM EDT on August 26, 2016 (GMT -0400)
Willow Run

Weather History for KYIP - March, 2012

Change the Weather History Date:

Monday, March 5, 2012

  Actual Average Record
Temperature  
Mean Temperature 28 °F -  
Max Temperature 32 °F 42 °F 66 °F (2004)
Min Temperature 24 °F 25 °F 5 °F (1978)
Degree Days  
Heating Degree Days 37    
Moisture  
Dew Point 17 °F    
Average Humidity 66    
Maximum Humidity 81    
Minimum Humidity 38    
Precipitation  
Precipitation 0.00 in - - ()
Sea Level Pressure  
Sea Level Pressure 30.16 in    
Wind  
Wind Speed 7 mph (North)    
Max Wind Speed 14 mph    
Max Gust Speed 21 mph    
Visibility 8 miles    
Events Snow    
Averages and records for this station are not official NWS values.
T = Trace of Precipitation, MM = Missing Value Source: NWS Daily Summary

Daily Weather History Graph

Daily Weather History Graph

Search for Another Location

Airport or City:

Trip Planner

Search our weather history database for the weather conditions in past years. The results will help you decide how hot, cold, wet, or windy it might be!

Date:

Astronomy

Mar. 05, 2012 Rise Set
Actual Time 7:02 AM EST 6:29 PM EST
Civil Twilight 6:34 AM EST 6:57 PM EST
Nautical Twilight 6:01 AM EST 7:29 PM EST
Astronomical Twilight 5:29 AM EST 8:02 PM EST
Moon 3:44 PM EST (3/5) 5:03 AM EST (3/5)
Length of Visible Light 12h 23m
Length of Day
11h 27m
Waxing Gibbous, 91% of the Moon is Illuminated
Mar 5
Waxing Gibbous
Mar 8
Full
Mar 14
Last Quarter
Mar 22
New
Mar 30
First Quarter

Hourly Weather History & Observations

Time (EST) Temp. Windchill Dew Point Humidity Pressure Visibility Wind Dir Wind Speed Gust Speed Precip Events Conditions
12:12 AM 28.4 °F 22.2 °F 23.0 °F 80% 29.90 in 2.0 mi NE 5.8 mph - 0.00 in Snow Light Snow
12:39 AM 26.6 °F 17.5 °F 21.2 °F 80% 29.90 in 2.5 mi NE 9.2 mph - 0.00 in Snow Light Snow
12:48 AM 26.6 °F 19.1 °F 21.2 °F 80% 29.90 in 3.0 mi ENE 6.9 mph - 0.00 in Snow Light Snow
12:53 AM 27.0 °F 19.5 °F 21.0 °F 78% 29.92 in 3.0 mi NE 6.9 mph - 0.00 in Snow Light Snow
1:11 AM 26.6 °F 18.2 °F 21.2 °F 80% 29.91 in 4.0 mi NE 8.1 mph - 0.00 in Snow Light Snow
1:20 AM 26.6 °F 18.2 °F 21.2 °F 80% 29.91 in 3.0 mi NE 8.1 mph - 0.00 in Snow Light Snow
1:41 AM 26.6 °F 20.0 °F 19.4 °F 74% 29.92 in 5.0 mi ENE 5.8 mph - 0.00 in   Haze
1:53 AM 26.1 °F 19.4 °F 19.9 °F 78% 29.94 in 8.0 mi ENE 5.8 mph - 0.00 in   Overcast
2:53 AM 25.0 °F 19.3 °F 19.9 °F 81% 29.95 in 9.0 mi NE 4.6 mph - 0.00 in   Overcast
3:53 AM 26.1 °F 19.4 °F 19.0 °F 75% 29.97 in 10.0 mi ENE 5.8 mph - 0.00 in   Overcast
4:48 AM 26.6 °F 20.0 °F 17.6 °F 69% 29.99 in 10.0 mi ENE 5.8 mph - N/A   Overcast
4:53 AM 26.1 °F 19.4 °F 18.0 °F 71% 30.01 in 10.0 mi NE 5.8 mph - N/A   Overcast
5:53 AM 25.0 °F 17.1 °F 18.0 °F 75% 30.06 in 6.0 mi NNE 6.9 mph - 0.00 in Snow Light Snow
6:53 AM 24.1 °F 16.0 °F 17.1 °F 75% 30.11 in 7.0 mi NE 6.9 mph - 0.00 in Snow Light Snow
7:53 AM 24.1 °F 16.0 °F 16.0 °F 71% 30.16 in 5.0 mi North 6.9 mph - 0.00 in Snow Light Snow
8:43 AM 24.8 °F 16.9 °F 15.8 °F 69% 30.16 in 10.0 mi NNW 6.9 mph - 0.00 in   Overcast
8:53 AM 25.0 °F 16.3 °F 16.0 °F 69% 30.19 in 9.0 mi NW 8.1 mph - 0.00 in   Overcast
9:18 AM 26.6 °F 17.5 °F 17.6 °F 69% 30.18 in 10.0 mi NNW 9.2 mph - N/A   Overcast
9:53 AM 26.1 °F 17.6 °F 16.0 °F 66% 30.22 in 10.0 mi WNW 8.1 mph - N/A   Overcast
10:53 AM 27.0 °F 16.1 °F 16.0 °F 63% 30.26 in 10.0 mi NW 12.7 mph 17.3 mph N/A   Overcast
11:27 AM 28.4 °F 18.5 °F 15.8 °F 59% 30.25 in 10.0 mi West 11.5 mph - N/A   Mostly Cloudy
11:53 AM 30.0 °F 19.5 °F 14.0 °F 51% 30.28 in 10.0 mi WNW 13.8 mph 20.7 mph N/A   Mostly Cloudy
12:53 PM 32.0 °F 24.2 °F 9.0 °F 38% 30.30 in 10.0 mi NW 9.2 mph 20.7 mph N/A   Clear
1:53 PM 32.0 °F 23.0 °F 10.0 °F 40% 30.32 in 10.0 mi NW 11.5 mph - N/A   Clear
2:53 PM 32.0 °F 25.6 °F 12.0 °F 44% 30.32 in 10.0 mi NW 6.9 mph - N/A   Partly Cloudy
3:53 PM 32.0 °F 23.6 °F 12.0 °F 44% 30.35 in 10.0 mi WNW 10.4 mph - N/A   Mostly Cloudy
4:53 PM 30.9 °F 22.8 °F 12.0 °F 46% 30.36 in 10.0 mi WNW 9.2 mph - N/A   Overcast
5:53 PM 30.9 °F 23.5 °F 12.9 °F 47% 30.38 in 10.0 mi NW 8.1 mph - N/A   Mostly Cloudy
6:53 PM 28.0 °F 20.8 °F 12.9 °F 53% 30.39 in 10.0 mi WSW 6.9 mph - N/A   Scattered Clouds
7:53 PM 27.0 °F 21.6 °F 14.0 °F 58% 30.40 in 10.0 mi SW 4.6 mph - N/A   Overcast
8:53 PM 25.0 °F 18.1 °F 15.1 °F 66% 30.41 in 10.0 mi SSW 5.8 mph - N/A   Clear
9:53 PM 26.1 °F 19.4 °F 16.0 °F 66% 30.41 in 10.0 mi SW 5.8 mph - N/A   Mostly Cloudy
10:53 PM 27.0 °F 20.5 °F 19.0 °F 72% 30.42 in 10.0 mi South 5.8 mph - N/A   Scattered Clouds
11:53 PM 28.9 °F 22.8 °F 19.9 °F 69% 30.42 in 10.0 mi South 5.8 mph - N/A   Overcast